Location: Palmerston North
(40.3500°S, 175.6170°E)
Time: 22:33:59
(UTC+13:00)

Cosmos 1486 Rocket - Pass Details

Date: 24 January 2019
Orbit: 758 x 784 km, 74.1° (Epoch: 15 October)

Event Time Altitude Azimuth Distance (km) Brightness Sun altitude
Exits shadow 22:30:29 - 346° (NNW) 2,441 6.3 -17.3°
Reaches altitude 10° 22:30:52 10° 346° (NNW) 2,295 6.2 -17.4°
Maximum altitude 22:36:05 83° 72° (ENE) 783 3.9 -18.1°
Drops below altitude 10° 22:41:24 10° 159° (SSE) 2,337 6.8 -18.7°
Sets 22:43:48 0° 160° (SSE) 3,275 7.7 -19.0°
